CW4874 Weather Reports


time (UTC)temp
C
wind
direction
speed
KPH
gust
KPH
rain 1hr
cm
rain 24hr
cm
rain mn
cm
humidity
%
barometer
mb
20260506180134 11 288 6.4 16.1 0.00 0.00 0.00 51 1011.2
20260506175622 11 314 6.4 17.7 0.00 0.00 0.00 51 1011.2
20260506175110 11 277 8.0 17.7 0.00 0.00 0.00 51 1011.3
20260506174824 11 248 6.4 14.5 0.00 0.00 0.00 50 1011.4
20260506174307 11 276 4.8 14.5 0.00 0.00 0.00 50 1011.3
20260506173537 11 281 4.8 17.7 0.00 0.00 0.00 51 1011.5
20260506173027 11 214 6.4 17.7 0.00 0.00 0.00 49 1011.6
20260506172517 11 289 8.0 19.3 0.00 0.00 0.00 51 1011.8
20260506172224 11 275 9.7 19.3 0.00 0.00 0.00 51 1011.8
20260506171456 10 281 9.7 19.3 0.00 0.00 0.00 51 1011.8
20260506170948 10 320 9.7 17.7 0.00 0.00 0.00 51 1011.7
20260506170440 10 270 8.0 19.3 0.00 0.00 0.00 52 1011.6
20260506165934 10 271 8.0 19.3 0.00 0.00 0.00 53 1011.5
20260506165426 10 266 6.4 17.7 0.00 0.00 0.00 54 1011.4
20260506164918 10 283 6.4 17.7 0.00 0.00 0.00 53 1011.6
20260506164415 10 250 8.0 17.7 0.00 0.00 0.00 54 1011.6
20260506163914 10 323 9.7 20.9 0.00 0.00 0.00 54 1011.5
20260506163415 10 355 8.0 20.9 0.00 0.00 0.00 53 1011.4
20260506163136 10 327 8.0 19.3 0.00 0.00 0.00 55 1011.4
20260506162414 10 280 9.7 20.9 0.00 0.00 0.00 54 1011.3
20260506161915 11 251 8.0 20.9 0.00 0.00 0.00 52 1011.3
20260506161412 11 281 6.4 16.1 0.00 0.00 0.00 53 1011.3
20260506160911 11 275 9.7 24.1 0.00 0.00 0.00 53 1011.4
20260506160410 11 276 9.7 24.1 0.00 0.00 0.00 51 1011.3
20260506155912 11 318 6.4 19.3 0.00 0.00 0.00 52 1011.1
20260506155410 11 54 8.0 17.7 0.00 0.00 0.00 52 1011.1
20260506154910 11 323 8.0 17.7 0.00 0.00 0.00 51 1011.1
20260506154631 11 290 8.0 14.5 0.00 0.00 0.00 51 1011.0
20260506154130 11 310 6.4 14.5 0.00 0.00 0.00 51 1011.1
20260506153632 11 339 6.4 24.1 0.00 0.00 0.00 52 1011.0
20260506152910 11 322 8.0 24.1 0.00 0.00 0.00 55 1011.0
20260506152408 11 5 8.0 24.1 0.00 0.00 0.00 54 1011.0
20260506151857 11 247 8.0 24.1 0.00 0.00 0.00 53 1011.0
20260506151356 11 22 9.7 17.7 0.00 0.00 0.00 53 1010.8
20260506150850 12 324 8.0 16.1 0.00 0.00 0.00 51 1010.8
20260506150344 11 279 8.0 16.1 0.00 0.00 0.00 52 1010.8
20260506145838 11 279 8.0 16.1 0.00 0.00 0.00 55 1010.8
20260506145332 11 5 8.0 16.1 0.00 0.00 0.00 52 1010.7
20260506144825 11 264 8.0 17.7 0.00 0.00 0.00 52 1010.7
20260506144541 11 322 8.0 17.7 0.00 0.00 0.00 51 1010.7
20260506143809 11 145 8.0 19.3 0.00 0.00 0.00 49 1010.6
20260506143308 11 300 6.4 17.7 0.00 0.00 0.00 50 1010.5
20260506142801 11 258 6.4 17.7 0.00 0.00 0.00 51 1010.5
20260506142254 11 346 8.0 16.1 0.00 0.00 0.00 50 1010.4
20260506142011 11 289 8.0 16.1 0.00 0.00 0.00 52 1010.5
20260506141241 11 249 6.4 16.1 0.00 0.00 0.00 51 1010.5
20260506140736 10 275 6.4 19.3 0.00 0.00 0.00 52 1010.4
20260506140454 10 311 8.0 19.3 0.00 0.00 0.00 51 1010.4
20260506135724 10 288 9.7 19.3 0.00 0.00 0.00 53 1010.3
20260506135429 10 317 9.7 22.5 0.00 0.00 0.00 52 1010.2
20260506134711 10 274 9.7 22.5 0.00 0.00 0.00 52 1010.1
20260506134432 10 279 11.3 25.7 0.00 0.00 0.00 53 1010.2
20260506133700 10 334 9.7 25.7 0.00 0.00 0.00 52 1010.3
20260506133153 10 258 6.4 17.7 0.00 0.00 0.00 52 1010.2
20260506132643 10 224 6.4 12.9 0.00 0.00 0.00 56 1010.2
20260506132142 10 267 4.8 16.1 0.00 0.00 0.00 56 1010.0
20260506131636 9 263 6.4 16.1 0.00 0.00 0.00 59 1010.0
20260506131123 9 279 8.0 16.1 0.00 0.00 0.00 60 1010.0
20260506130842 9 257 8.0 16.1 0.00 0.00 0.00 61 1009.9
20260506130109 9 257 6.4 12.9 0.00 0.00 0.00 63 1009.9
20260506125603 8 277 6.4 16.1 0.00 0.00 0.00 63 1009.8
20260506125102 8 292 6.4 16.1 0.00 0.00 0.00 65 1009.7
20260506124556 8 317 4.8 12.9 0.00 0.00 0.00 65 1009.7
20260506124049 8 300 4.8 12.9 0.00 0.00 0.00 64 1009.7
20260506123543 8 294 6.4 12.9 0.00 0.00 0.00 65 1009.6
20260506123302 8 319 8.0 16.1 0.00 0.00 0.00 64 1009.5
20260506122801 7 289 6.4 16.1 0.00 0.00 0.00 64 1009.5
20260506122021 7 292 4.8 9.7 0.00 0.00 0.00 67 1009.4
20260506121519 7 286 3.2 6.4 0.00 0.00 0.00 67 1009.1
20260506121235 7 342 3.2 11.3 0.00 0.00 0.00 67 1009.2
20260506120508 7 279 4.8 11.3 0.00 0.00 0.00 67 1009.2
20260506120000 7 308 4.8 9.7 0.00 0.00 0.00 66 1009.1
20260506115454 7 265 3.2 8.0 0.00 0.00 0.00 67 1009.0
20260506114941 7 312 3.2 8.0 0.00 0.00 0.00 66 1009.1
20260506114659 7 274 3.2 8.0 0.00 0.00 0.00 67 1009.2
20260506114158 7 294 3.2 8.0 0.00 0.00 0.00 68 1009.2
20260506113424 7 286 3.2 8.0 0.00 0.00 0.00 68 1009.0
20260506112911 7 278 3.2 9.7 0.00 0.00 0.00 67 1009.0
20260506112634 7 292 3.2 9.7 0.00 0.00 0.00 67 1008.9
20260506111900 6 274 3.2 9.7 0.00 0.00 0.00 67 1008.8
20260506111354 6 321 3.2 9.7 0.00 0.00 0.00 67 1008.9
20260506110848 6 330 3.2 9.7 0.00 0.00 0.00 67 1008.7
20260506110607 7 314 3.2 8.0 0.00 0.00 0.00 67 1008.6
20260506105831 7 334 3.2 9.7 0.00 0.00 0.00 66 1008.4
20260506105330 7 277 3.2 9.7 0.00 0.00 0.00 66 1008.4
20260506105035 7 296 3.2 8.0 0.00 0.00 0.00 66 1008.3
20260506104317 7 315 4.8 9.7 0.00 0.00 0.00 65 1008.3
20260506104033 7 284 4.8 9.7 0.00 0.00 0.00 65 1008.4
20260506103527 7 279 4.8 11.3 0.00 0.00 0.00 65 1008.1
20260506102800 7 318 4.8 11.3 0.00 0.00 0.00 65 1008.0
20260506102249 7 277 4.8 9.7 0.00 0.00 0.00 64 1008.0
20260506101747 7 300 4.8 9.7 0.00 0.00 0.00 65 1008.0
20260506101242 7 296 3.2 11.3 0.00 0.00 0.00 65 1008.0
20260506100729 7 287 4.8 9.7 0.00 0.00 0.00 65 1007.9
20260506100446 7 294 3.2 9.7 0.00 0.00 0.00 65 1007.9
20260506095718 7 271 3.2 8.0 0.00 0.00 0.00 66 1007.9
20260506095211 7 315 3.2 6.4 0.00 0.00 0.00 65 1007.8
20260506094706 7 317 3.2 6.4 0.00 0.00 0.00 65 1007.7
20260506094200 7 295 1.6 4.8 0.00 0.00 0.00 65 1007.8
20260506093649 7 299 1.6 6.4 0.00 0.00 0.00 65 1007.7
20260506093148 8 296 3.2 6.4 0.00 0.00 0.00 66 1007.6
20260506092641 8 298 3.2 6.4 0.00 0.00 0.00 65 1007.5
20260506092136 8 306 3.2 6.4 0.00 0.00 0.00 64 1007.4
20260506091851 8 315 3.2 6.4 0.00 0.00 0.00 64 1007.3
20260506091124 8 276 3.2 11.3 0.00 0.00 0.00 65 1007.5
20260506090618 8 288 3.2 11.3 0.00 0.00 0.00 64 1007.6
20260506090107 8 317 3.2 6.4 0.00 0.00 0.00 64 1007.5
20260506085606 8 314 3.2 6.4 0.00 0.00 0.00 64 1007.3
20260506085100 8 0 3.2 6.4 0.00 0.00 0.00 64 1007.3
20260506084554 8 275 4.8 6.4 0.00 0.00 0.00 63 1007.2
20260506084047 8 287 3.2 9.7 0.00 0.00 0.00 64 1007.1
20260506083537 8 252 3.2 9.7 0.00 0.00 0.00 63 1007.4
20260506083035 8 285 3.2 9.7 0.00 0.00 0.00 64 1007.3
20260506082526 8 307 3.2 6.4 0.00 0.00 0.00 64 1007.4
20260506082023 8 331 3.2 9.7 0.00 0.00 0.00 64 1007.3
20260506081518 8 319 4.8 9.7 0.00 0.00 0.00 64 1007.3
20260506081242 8 284 4.8 9.7 0.00 0.00 0.00 63 1007.2
20260506080506 8 275 4.8 9.7 0.00 0.00 0.00 64 1007.2
20260506072923 8 257 4.8 9.7 0.00 0.00 0.00 63 1007.5
20260506072418 8 308 4.8 9.7 0.00 0.00 0.00 63 1007.3
20260506071912 8 254 3.2 8.0 0.00 0.00 0.00 64 1007.3
20260506071405 8 273 3.2 8.0 0.00 0.00 0.00 64 1007.3
20260506070855 8 277 3.2 9.7 0.00 0.00 0.00 64 1007.1
20260506070353 8 274 3.2 9.7 0.00 0.00 0.00 64 1007.2
20260506062306 8 291 3.2 8.0 0.00 0.00 0.00 64 1007.6
20260506061759 8 302 3.2 8.0 0.00 0.00 0.00 64 1007.5
20260506061513 8 301 4.8 12.9 0.00 0.00 0.00 64 1007.6
20260506061009 8 292 4.8 12.9 0.00 0.00 0.00 64 1007.5
20260506060242 8 271 3.2 9.7 0.00 0.00 0.00 65 1007.6
20260506051142 9 305 1.6 6.4 0.00 0.05 0.00 64 1007.5
20260506050631 9 300 3.2 6.4 0.00 0.05 0.00 64 1007.4
20260506050130 9 257 3.2 6.4 0.00 0.05 0.00 64 1007.6
20260506045119 9 270 1.6 6.4 0.00 0.05 0.00 64 1007.5
20260506044612 9 284 1.6 6.4 0.00 0.05 0.00 64 1007.6
20260506044105 9 240 1.6 4.8 0.00 0.05 0.00 64 1007.6
20260506043600 9 275 1.6 4.8 0.00 0.05 0.00 64 1007.5
20260506043308 9 261 0.0 3.2 0.00 0.05 0.00 65 1007.4
20260506042547 9 261 1.6 6.4 0.00 0.13 0.00 65 1007.5
20260506042041 9 256 1.6 6.4 0.00 0.20 0.00 63 1007.5
20260506041536 9 271 1.6 4.8 0.00 0.20 0.00 64 1007.4
20260506041520 9 282 3.2 9.7 0.00 0.20 0.00 62 1007.5
20260506040519 9 284 3.2 9.7 0.00 0.20 0.00 61 1007.4
20260506040013 9 243 3.2 8.0 0.00 0.20 0.00 60 1007.4
20260506035722 9 273 3.2 6.4 0.00 0.20 0.20 60 1007.3
20260506035002 9 247 3.2 9.7 0.00 0.20 0.20 59 1007.2
20260506034456 9 284 3.2 9.7 0.00 0.20 0.20 59 1007.2
20260506033951 9 281 3.2 8.0 0.00 0.20 0.20 60 1007.2
20260506033444 9 291 1.6 6.4 0.00 0.20 0.20 60 1007.3
20260506032939 9 284 0.0 4.8 0.00 0.20 0.20 63 1007.1
20260506032432 9 270 0.0 1.6 0.00 0.20 0.20 64 1007.2
20260506031923 9 270 0.0 1.6 0.00 0.20 0.20 63 1007.3
20260506031420 9 270 0.0 3.2 0.00 0.20 0.20 61 1007.4
20260506031135 9 270 0.0 3.2 0.00 0.20 0.20 62 1007.5
20260506030409 9 279 0.0 3.2 0.00 0.20 0.20 62 1007.6
20260506025902 10 279 0.0 3.2 0.00 0.20 0.20 62 1007.5
20260506025352 10 266 0.0 3.2 0.00 0.20 0.20 62 1007.4
20260506024851 10 272 1.6 3.2 0.00 0.20 0.20 60 1007.3
20260506024344 10 282 0.0 3.2 0.00 0.20 0.20 61 1007.3
20260506023839 10 276 0.0 3.2 0.00 0.20 0.20 62 1007.4
20260506023600 10 283 1.6 4.8 0.00 0.20 0.20 61 1007.5
20260506022827 10 283 1.6 4.8 0.00 0.20 0.20 60 1007.5
20260506022548 10 285 1.6 4.8 0.00 0.20 0.20 60 1007.5
20260506021810 10 281 1.6 4.8 0.00 0.20 0.20 60 1007.4
20260506021308 10 296 0.0 4.8 0.00 0.20 0.20 58 1007.3
20260506020802 10 290 0.0 3.2 0.00 0.20 0.20 58 1007.3
20260506020257 10 290 1.6 4.8 0.00 0.20 0.20 57 1007.3
20260506015750 10 290 1.6 4.8 0.00 0.20 0.20 55 1007.3
20260506015240 10 318 3.2 8.0 0.00 0.20 0.20 55 1007.2
20260506014739 10 249 3.2 8.0 0.00 0.20 0.20 54 1007.2
20260506014232 10 319 4.8 11.3 0.00 0.20 0.20 54 1007.1
20260506014208 10 284 4.8 11.3 0.00 0.20 0.20 54 1006.9
20260506013445 10 288 4.8 11.3 0.00 0.20 0.20 53 1006.9
20260506012710 10 283 3.2 11.3 0.00 0.20 0.20 53 1007.0
20260506012209 10 284 3.2 9.7 0.00 0.20 0.20 54 1006.9
20260506011658 10 292 4.8 9.7 0.00 0.20 0.20 53 1006.7
20260506011156 11 290 4.8 9.7 0.00 0.20 0.20 53 1006.8
20260506010651 11 257 4.8 11.3 0.00 0.20 0.20 54 1006.7
20260506010402 11 314 4.8 11.3 0.00 0.20 0.20 52 1006.8
20260506005638 11 296 3.2 9.7 0.00 0.20 0.20 52 1006.8
20260506005128 11 273 3.2 8.0 0.00 0.20 0.20 52 1006.7
20260506004626 11 277 3.2 8.0 0.00 0.20 0.20 52 1006.8
20260506004120 11 228 4.8 11.3 0.00 0.20 0.20 54 1006.8
20260506003610 11 205 6.4 12.9 0.00 0.20 0.20 51 1006.8
20260506003108 11 277 4.8 12.9 0.00 0.20 0.20 51 1006.9
20260506002818 11 251 3.2 9.7 0.00 0.20 0.20 53 1006.8
20260506002056 11 318 4.8 11.3 0.00 0.20 0.20 54 1006.9
20260506001545 11 288 6.4 14.5 0.00 0.20 0.20 52 1006.8
20260506001044 11 275 4.8 14.5 0.00 0.20 0.20 53 1006.9
20260506000538 11 282 4.8 9.7 0.00 0.20 0.20 58 1006.8
20260506000033 11 259 4.8 9.7 0.00 0.20 0.20 56 1006.7
20260505235749 11 290 3.2 9.7 0.00 0.20 0.20 55 1006.6
20260505235032 11 278 3.2 9.7 0.00 0.20 0.20 57 1006.7
20260505234534 11 293 4.8 11.3 0.00 0.23 0.20 55 1006.4
20260505234033 11 238 4.8 11.3 0.00 0.23 0.20 56 1006.4
20260505233528 11 291 4.8 11.3 0.00 0.23 0.20 54 1006.3
20260505233028 11 277 4.8 11.3 0.00 0.38 0.20 54 1006.2
20260505232528 12 271 4.8 9.7 0.00 0.41 0.20 56 1006.2
20260505232028 12 245 4.8 12.9 0.00 0.41 0.20 55 1006.1
20260505231529 12 289 4.8 12.9 0.00 0.41 0.20 53 1006.2
20260505231026 12 250 3.2 11.3 0.00 0.46 0.20 55 1006.2
20260505230754 12 294 4.8 11.3 0.00 0.58 0.20 54 1006.2
20260505230023 12 252 4.8 9.7 0.00 0.61 0.20 54 1006.2
20260505225524 12 257 4.8 14.5 0.00 0.61 0.20 53 1006.2
20260505225024 12 290 6.4 16.1 0.00 0.61 0.20 53 1006.3
20260505224745 12 271 8.0 20.9 0.00 0.61 0.20 53 1006.3
20260505224027 12 293 8.0 20.9 0.00 0.61 0.20 53 1006.3
20260505223525 12 282 6.4 14.5 0.00 0.61 0.20 54 1006.2
20260505223019 12 313 6.4 14.5 0.00 0.61 0.20 54 1006.3
20260505222509 12 304 8.0 16.1 0.00 0.61 0.20 55 1006.4
20260505222227 12 269 6.4 16.1 0.00 0.61 0.20 55 1006.3
20260505221456 12 333 6.4 16.1 0.00 0.61 0.20 57 1006.4
20260505220949 12 292 6.4 14.5 0.00 0.61 0.20 57 1006.3
20260505220448 12 273 4.8 12.9 0.00 0.61 0.20 58 1006.2
20260505215948 12 281 4.8 9.7 0.00 0.61 0.20 59 1006.2
20260505215449 13 280 6.4 14.5 0.00 0.61 0.20 59 1006.2
20260505214948 13 298 6.4 14.5 0.00 0.61 0.20 59 1006.2
20260505214448 13 284 4.8 12.9 0.00 0.61 0.20 59 1006.2
20260505213948 13 286 4.8 14.5 0.00 0.61 0.20 60 1006.2
20260505213448 13 223 6.4 14.5 0.00 0.61 0.20 62 1006.3
20260505212948 13 264 6.4 14.5 0.00 0.61 0.20 64 1006.3
20260505212450 13 263 6.4 12.9 0.00 0.61 0.20 66 1006.2
20260505211951 13 251 4.8 12.9 0.00 0.61 0.20 69 1006.1
20260505211445 13 338 6.4 16.1 0.00 0.61 0.20 69 1006.1
20260505210932 13 189 8.0 17.7 0.00 0.61 0.20 68 1006.2
20260505210422 13 288 6.4 17.7 0.00 0.61 0.20 69 1006.2
20260505205911 13 180 4.8 17.7 0.00 0.61 0.20 70 1006.3
20260505205409 13 227 4.8 9.7 0.00 0.61 0.20 69 1006.4
20260505204910 13 247 4.8 9.7 0.00 0.61 0.20 70 1006.4
20260505204410 13 194 4.8 9.7 0.00 0.61 0.20 70 1006.3
20260505203910 12 246 6.4 16.1 0.00 0.61 0.20 70 1006.4
20260505203410 12 256 8.0 17.7 0.00 0.61 0.20 68 1006.4
20260505202910 12 271 6.4 17.7 0.00 0.61 0.20 69 1006.5
20260505202636 12 200 6.4 16.1 0.00 0.61 0.20 69 1006.4
20260505201911 13 289 6.4 16.1 0.00 0.61 0.20 67 1006.4
20260505201404 13 229 4.8 11.3 0.00 0.61 0.20 70 1006.4
20260505201121 13 174 4.8 14.5 0.00 0.61 0.20 71 1006.4
20260505200340 13 168 4.8 14.5 0.00 0.61 0.20 70 1006.4
20260505195828 13 267 4.8 11.3 0.00 0.61 0.20 70 1006.4
20260505195318 13 230 6.4 14.5 0.00 0.61 0.20 71 1006.4
20260505194818 13 264 4.8 14.5 0.00 0.61 0.20 70 1006.4
20260505194317 13 243 3.2 12.9 0.00 0.61 0.20 73 1006.4
20260505193819 12 252 3.2 6.4 0.00 0.61 0.20 73 1006.4
20260505193318 12 212 3.2 8.0 0.00 0.61 0.20 73 1006.5
20260505193306 12 275 3.2 12.9 0.00 0.61 0.20 73 1006.6
20260505192318 12 229 6.4 12.9 0.00 0.61 0.20 73 1006.6
20260505191820 12 213 6.4 12.9 0.00 0.61 0.20 72 1006.5
20260505191544 12 263 4.8 16.1 0.00 0.61 0.20 74 1006.6
20260505190814 11 272 4.8 16.1 0.00 0.61 0.20 75 1006.6
20260505190303 11 194 4.8 16.1 0.00 0.61 0.20 74 1006.6
20260505190248 11 219 4.8 12.9 0.00 0.61 0.20 75 1006.7
20260505185304 11 194 6.4 14.5 0.00 0.61 0.20 74 1006.8
20260505184802 11 279 6.4 14.5 0.00 0.61 0.20 74 1006.8
20260505184522 11 271 4.8 16.1 0.00 0.61 0.20 76 1006.8
20260505183802 11 254 4.8 16.1 0.00 0.61 0.20 75 1006.8
20260505183302 11 248 4.8 16.1 0.00 0.61 0.20 75 1006.8
20260505182804 11 284 6.4 17.7 0.00 0.61 0.20 75 1006.7
20260505182306 11 252 6.4 17.7 0.00 0.61 0.20 75 1006.6
20260505181758 11 238 6.4 19.3 0.00 0.61 0.20 75 1006.4
20260505181246 11 173 6.4 19.3 0.00 0.61 0.20 75 1006.4
20260505180746 11 246 6.4 14.5 0.00 0.61 0.20 76 1006.3
20260505180246 11 196 6.4 19.3 0.00 0.61 0.20 76 1006.3